Location: Houston
(29.7630°N, 95.3630°W)
Time: 03:48:44
(UTC-05:00)

Saudisat 1A - Visible Passes

Search period start: 25 April 2015 00:00
Search period end: 05 May 2015 00:00
Orbit: 582 x 618 km, 64.6° (Epoch: 23 April)

Date Brightness Start Highest point End Pass type
(mag) Time Alt. Az. Time Alt. Az. Time Alt. Az.
25 Apr 10.2 05:02:39 10° SSE 05:05:50 21° ESE 05:09:10 10° ENE visible
26 Apr 9.0 05:13:56 18° S 05:16:48 43° ESE 05:20:58 10° NE visible
27 Apr 7.9 05:25:22 25° SSW 05:27:48 86° WNW 05:32:12 10° NNE visible
28 Apr 10.6 03:59:56 13° ESE 03:59:56 13° ESE 04:01:54 10° E visible
28 Apr 8.6 05:36:41 23° WSW 05:38:55 41° WNW 05:43:04 10° NNE visible
29 Apr 9.7 04:11:09 26° E 04:11:09 26° E 04:14:23 10° NE visible
29 Apr 9.5 05:47:54 15° W 05:50:10 21° NW 05:53:29 10° N visible
30 Apr 8.7 04:22:17 51° ENE 04:22:17 51° ENE 04:25:55 10° NE visible
30 Apr 10.2 06:00:01 10° WNW 06:01:33 11° NW 06:02:53 10° NNW visible
01 May 8.4 04:33:19 55° NNW 04:33:19 55° NNW 04:36:59 10° NNE visible
02 May 9.1 04:44:18 31° NW 04:44:18 31° NW 04:47:41 10° N visible
03 May 10.8 03:18:28 15° NE 03:18:28 15° NE 03:19:24 10° NE visible
03 May 9.9 04:55:11 17° NW 04:55:11 17° NW 04:57:52 10° NNW visible
04 May 10.5 03:29:18 20° NNE 03:29:18 20° NNE 03:30:43 10° NNE visible
